YAHSAT 1B

Last updated on Tue Sep 22 2026 00:03:12 GMT+0000 (Coordinated Universal Time)

1 38245U 12016A 26263.78575611 .00000122 00000+0 00000+0 0 9994 2 38245 0.1010 88.7147 0001230 74.7536 166.7095 1.00274985 46560
UTC large
Height (km)
Speed (km/s)
/
Latitude / Longitude
Inclination (degrees)
Orbital Period (minutes)
Azimuth
Elevation
Range (km)
Doppler Factor

Next 0 passes for location: London (51.5072 / 0.1276)

No passes found over London.
YAHSAT 1B